RH
44 19 52 36 19 22 23 29 49 30 29 29 27 30 64 42 69 76 30 42 43 55 68 76 89 92 84 85 83 84 82 82 81 80 76 75 74 74 74 75 77 76 76 76 74 75 76 72 79
28 22 46 38 22 16 16 36 36 36 35 23 41 63 47 46 24 28 61 43 40 49 62 73 88 89 91 89 85 84 81 81 81 80 78 76 74 73 74 77 78 79 79 79 79 79 80 77 82
16 52 41 38 32 15 23 37 31 34 30 22 32 33 36 43 28 47 46 43 39 49 53 61 83 87 89 90 96 88 83 83 83 82 80 79 78 76 73 79 80 82 80 82 82 82 84 84 83
61 45 43 25 42 50 37 32 30 26 29 24 26 44 41 48 46 45 39 42 43 48 51 61 71 78 82 89 90 89 93 83 84 82 83 81 80 77 78 81 84 83 83 84 84 84 85 85 84
60 51 46 49 62 38 30 26 27 26 26 27 25 33 51 47 42 39 40 42 46 48 50 59 67 69 73 76 85 90 91 94 86 84 83 82 82 80 80 85 84 86 86 84 85 84 85 86 85
62 45 35 41 56 39 28 25 26 26 24 26 29 30 48 45 42 41 43 41 44 54 50 54 63 67 69 70 75 83 87 90 93 86 84 84 84 81 83 85 85 87 86 86 85 84 85 86 84
56 35 32 58 50 34 28 26 31 28 26 28 36 34 44 49 43 42 44 43 42 53 55 54 60 60 67 68 69 73 83 86 92 91 90 85 86 86 82 85 84 83 88 88 88 87 86 85 84
57 49 49 48 42 39 28 26 27 28 29 25 41 54 45 53 44 43 45 44 44 48 55 55 57 58 59 67 63 70 75 81 90 93 93 93 91 92 86 82 84 82 87 88 87 86 84 85 85
43 41 48 27 27 32 28 26 27 30 30 47 48 55 53 46 44 47 50 48 52 50 54 55 62 58 60 55 60 76 77 78 84 92 91 96 91 93 90 94 89 83 87 86 87 87 85 89 90
34 31 29 26 32 30 28 31 34 28 28 46 49 50 49 48 50 55 58 59 54 55 58 58 63 64 56 48 61 74 76 85 85 90 91 92 91 93 88 93 94 87 87 87 87 87 90 87 85
27 28 28 27 30 29 31 29 34 30 44 52 58 60 52 51 53 57 58 59 55 53 58 65 64 62 64 61 66 69 84 90 90 88 91 92 93 96 92 95 92 93 98 95 92 93 89 90 88
26 26 25 32 33 29 29 29 30 43 40 54 55 52 53 52 53 55 59 62 56 57 56 66 67 64 65 70 71 77 83 86 90 90 89 96 97 96 94 92 92 91 91 98 98 96 96 88 85
27 30 24 29 34 29 28 32 33 34 51 49 44 47 54 53 51 50 51 56 54 56 58 69 68 68 64 69 70 75 84 87 88 88 89 92 95 95 94 93 90 85 92 93 96 97 92 86 82
30 30 26 31 34 32 30 31 31 47 52 48 48 53 52 53 55 50 50 54 54 53 61 68 72 68 69 74 76 77 81 84 87 89 90 88 96 93 95 92 90 83 88 89 88 91 94 85 75
24 24 26 31 34 35 30 30 33 54 54 51 53 55 54 56 54 53 55 55 56 59 61 69 68 68 75 76 79 82 83 80 88 88 85 87 90 92 95 91 92 86 82 90 90 87 92 85 77
22 24 16 30 33 34 24 21 40 59 61 57 57 55 53 55 55 55 56 58 57 62 62 69 64 76 76 77 80 80 82 85 88 88 87 89 86 90 94 95 90 87 85 88 93 90 91 89 86
25 18 26 24 37 33 32 27 34 56 54 64 64 64 59 54 48 52 55 59 60 62 66 70 70 76 78 79 81 83 83 86 87 88 90 89 89 92 88 93 94 88 94 90 92 89 88 92 90
39 33 29 34 34 37 41 52 41 41 51 64 70 68 63 53 48 51 55 54 58 64 66 68 70 76 78 81 81 84 85 86 86 90 88 85 88 94 94 91 91 95 91 87 90 92 93 91 90
65 71 67 47 38 45 50 58 50 42 54 77 77 75 66 50 46 59 53 57 55 61 65 70 76 78 81 80 81 86 86 87 86 86 84 81 88 87 94 92 91 94 88 81 88 93 94 94 88
59 75 55 43 34 44 68 68 68 63 85 86 85 84 72 59 53 51 67 64 72 70 75 77 76 81 82 84 77 80 83 85 86 84 83 83 86 91 91 87 90 90 85 75 87 88 90 88 87
67 78 51 48 49 56 75 66 68 78 93 86 83 85 82 74 64 58 78 82 87 85 86 76 82 85 83 82 79 80 83 84 85 84 88 86 83 92 95 88 86 87 88 83 81 84 81 88 89
40 47 54 62 78 72 79 66 66 86 83 86 84 90 87 74 60 64 70 87 89 89 87 88 84 87 80 84 86 82 85 88 84 85 86 87 82 89 92 92 82 87 86 87 77 76 72 77 89
44 48 54 77 93 88 80 91 69 85 77 66 70 77 84 72 80 76 74 87 86 91 92 90 90 89 90 94 90 89 86 85 84 85 85 86 85 86 93 95 83 86 85 85 76 73 66 74 80
45 50 60 72 94 86 80 74 71 73 68 72 78 75 72 75 80 76 68 75 89 92 93 91 90 89 92 95 93 92 90 87 87 86 89 89 89 90 95 97 88 86 85 88 81 71 64 71 75
68 78 83 79 82 74 82 80 73 64 67 72 67 70 74 81 84 83 84 87 87 92 89 90 88 91 90 94 93 93 89 87 87 87 90 91 91 91 95 97 95 90 87 86 78 75 69 68 71
92 74 83 67 82 69 74 86 60 65 78 75 77 80 79 84 84 84 84 89 91 92 89 88 89 92 92 93 93 93 91 91 89 87 88 90 90 91 91 95 97 96 87 79 82 78 72 65 68
66 73 72 86 96 87 95 72 64 67 68 78 77 83 82 80 80 82 83 88 92 91 88 89 90 92 91 94 94 94 93 93 90 86 87 89 87 86 87 93 95 97 96 84 86 86 72 61 65
70 81 69 88 66 81 85 82 70 56 52 61 60 70 74 80 81 83 85 88 91 89 90 89 88 94 95 95 96 96 95 94 90 88 88 87 85 84 86 90 93 96 92 90 85 85 78 66 65
87 88 88 84 95 80 88 81 76 61 59 56 64 73 79 81 83 85 87 90 90 90 91 88 88 90 94 95 95 96 95 94 93 90 88 88 86 85 86 86 92 95 97 91 90 87 82 77 66
88 77 80 84 82 100 96 77 90 69 77 80 71 71 81 86 85 88 89 92 90 89 90 87 87 89 93 95 95 95 96 95 95 92 90 89 88 85 86 85 89 93 95 95 93 89 86 82 69
Wind_Speed
7 5 1 6 6 6 2 2 1 6 9 5 9 4 11 10 6 4 8 21 23 20 23 27 39 35 11 8 6 6 8 9 11 13 15 15 15 15 16 16 15 15 16 17 17 18 18 18 18
4 3 5 3 7 4 4 3 3 3 6 13 4 3 8 7 10 5 10 23 21 19 19 22 36 36 37 17 9 8 9 10 11 12 14 15 15 15 16 16 15 14 14 15 17 17 18 17 18
3 3 5 6 4 6 5 2 5 6 5 9 4 8 5 6 8 6 13 18 20 17 17 21 34 35 34 37 34 8 11 11 12 13 15 15 16 16 16 15 14 13 15 15 17 18 18 17 18
3 6 5 5 4 2 3 3 4 8 3 10 3 8 6 10 5 10 14 15 16 17 17 21 32 32 34 33 32 29 28 12 13 13 14 16 16 16 18 17 15 13 15 17 18 18 17 16 17
4 4 5 4 3 3 2 2 5 5 3 6 8 2 9 7 6 10 14 13 16 17 17 17 29 30 31 33 32 30 30 31 13 14 14 14 16 17 16 14 15 16 17 18 19 18 17 16 17
5 4 4 4 4 3 1 4 1 4 5 5 7 5 6 5 17 15 13 14 13 14 18 17 25 29 30 30 31 31 30 30 28 14 16 15 14 16 17 16 16 18 18 18 18 17 17 17 17
7 5 4 5 7 3 3 8 4 2 2 3 3 3 3 13 15 14 12 11 13 12 16 16 17 22 26 28 28 31 30 29 28 23 14 16 14 14 17 19 18 19 18 19 19 18 18 17 16
5 6 5 1 5 4 3 5 0 4 1 4 4 3 5 9 14 12 11 11 12 13 15 16 18 17 17 16 25 28 29 27 28 25 23 15 13 11 14 20 18 18 19 21 20 19 18 17 15
1 6 4 5 6 5 1 3 3 3 2 3 3 3 4 9 11 11 13 14 15 14 14 14 16 17 17 16 14 20 23 25 24 21 21 22 8 9 10 9 13 17 19 21 22 19 16 17 14
6 4 5 2 4 4 2 2 0 2 3 1 3 5 7 10 11 14 16 17 18 18 17 14 15 17 17 14 14 12 13 11 11 13 14 9 12 8 9 11 12 14 16 17 20 19 17 13 8
4 4 5 2 4 3 2 1 1 2 3 3 4 5 6 6 8 10 11 12 14 16 12 14 15 14 16 13 11 7 7 8 10 15 12 12 12 6 7 6 7 7 9 6 9 12 7 9 7
8 5 4 3 3 2 2 2 2 3 2 1 1 2 3 6 7 8 10 10 13 14 15 15 14 15 14 11 9 10 9 8 8 10 15 11 8 10 8 6 8 7 7 6 5 5 6 7 8
6 3 5 5 6 5 1 2 2 5 3 0 2 4 5 6 8 8 7 9 11 13 14 15 15 14 13 13 10 10 10 9 10 10 12 11 11 7 6 7 8 8 9 8 7 7 8 7 9
4 5 5 4 3 3 2 3 1 3 1 2 1 3 4 6 8 9 11 11 13 13 15 14 15 14 13 11 14 11 10 11 11 10 11 16 13 8 8 9 9 9 9 9 9 9 8 7 9
4 4 1 5 5 3 4 1 5 3 1 6 6 5 7 7 7 7 8 9 10 11 13 15 16 15 15 15 12 11 10 11 11 11 13 14 13 13 11 11 10 10 10 11 9 10 6 8 7
5 4 2 2 6 3 5 5 4 1 2 8 6 6 6 9 6 7 6 9 11 11 13 14 14 15 15 15 12 11 11 11 12 11 10 14 16 16 13 9 13 11 10 9 10 10 10 9 10
7 1 3 8 2 4 2 7 4 1 4 8 6 7 6 7 10 6 6 7 10 10 12 13 15 15 16 15 12 12 13 11 11 11 10 14 14 17 14 10 8 14 9 11 11 11 11 10 9
2 1 1 6 2 2 6 18 12 8 6 9 7 7 6 7 10 8 9 8 9 9 10 12 12 15 14 12 11 9 10 9 9 10 10 16 13 13 14 11 14 10 9 9 10 12 10 11 10
7 3 3 3 3 5 5 10 13 9 7 8 8 7 7 8 7 7 7 9 10 10 12 12 15 14 11 11 12 11 10 10 11 10 14 14 14 16 16 12 14 12 15 16 15 12 15 10 11
3 2 6 4 4 4 7 17 10 5 5 6 7 7 8 6 8 9 9 9 9 10 11 13 14 14 12 9 11 11 11 10 11 12 15 16 15 13 14 17 16 18 13 14 14 15 12 9 12
4 4 1 4 5 4 7 9 6 3 4 5 6 6 6 7 9 10 8 9 8 8 10 13 13 15 13 14 11 11 10 9 9 10 10 10 13 15 14 19 17 19 16 12 16 17 18 13 12
3 4 1 5 2 4 4 7 6 5 9 5 9 8 9 8 7 7 11 8 8 9 9 10 12 14 13 13 13 15 13 13 10 11 12 13 15 15 15 20 19 19 16 17 17 16 16 14 15
1 3 2 2 2 3 4 4 9 2 6 9 9 8 8 9 5 10 11 9 10 7 9 10 10 13 13 12 13 11 13 10 10 11 15 15 15 15 13 13 24 21 17 18 20 19 18 13 15
3 2 2 3 3 3 2 5 8 5 8 6 6 6 8 8 8 9 10 9 7 7 7 9 10 13 12 12 13 14 14 13 11 11 12 11 11 10 15 8 20 20 20 20 17 17 19 15 15
7 4 4 6 5 5 2 2 12 8 8 8 8 9 9 7 8 8 9 9 9 8 10 8 11 14 14 13 13 13 13 14 15 13 11 14 10 8 8 6 14 17 19 20 19 16 17 16 15
1 6 5 6 3 5 4 9 9 8 6 8 9 9 9 10 7 8 8 8 8 8 9 10 11 15 15 14 14 12 12 8 9 10 11 11 10 10 12 7 11 6 19 21 18 14 14 15 14
2 2 4 8 1 3 3 10 11 5 8 4 7 3 9 8 8 8 9 7 8 7 9 11 12 14 15 15 13 13 11 11 10 12 12 10 12 10 11 9 7 8 11 18 19 14 16 16 14
4 3 4 4 2 7 6 8 8 5 6 5 7 7 8 7 8 7 7 7 6 7 7 9 10 12 15 15 12 11 13 11 10 10 12 13 11 11 10 10 9 8 14 15 19 15 17 17 14
1 2 6 4 3 5 4 9 10 9 8 7 9 8 8 9 8 7 8 7 7 7 6 9 10 12 14 14 14 14 12 11 10 9 10 11 11 11 9 9 9 6 7 16 17 16 17 18 17
3 6 6 6 6 1 3 13 4 8 5 4 11 11 8 7 7 6 7 7 7 7 7 8 11 11 13 14 14 14 12 11 9 9 11 10 9 9 8 6 7 4 11 11 13 18 16 19 19
Wind_Direction
336 317 82 44 68 70 162 95 13 349 357 359 284 310 106 45 21 116 321 2 347 352 357 359 5 0 283 217 195 180 177 171 171 172 170 169 172 171 167 166 163 155 150 146 141 135 129 126 118
341 331 45 86 89 86 258 350 29 333 344 315 353 12 41 75 22 45 16 346 347 354 2 355 7 9 3 350 215 194 193 185 179 178 178 178 179 183 179 171 174 161 154 152 141 141 130 131 124
336 24 78 91 105 169 179 47 294 302 352 360 59 46 53 353 30 29 345 340 347 357 3 358 7 8 4 8 4 272 204 196 193 185 182 184 179 182 184 179 173 166 155 147 145 137 133 131 128
58 16 36 86 155 35 100 335 306 326 8 34 340 77 72 34 36 3 340 346 349 356 359 2 6 9 3 1 1 1 353 211 206 199 194 186 180 183 181 178 173 168 154 147 144 138 137 133 129
37 61 71 84 120 122 72 321 316 357 37 8 350 19 145 49 34 354 351 354 354 356 357 358 4 6 2 359 357 356 1 349 239 206 205 200 186 184 191 176 174 166 154 150 146 145 143 142 137
49 91 77 176 152 118 42 349 58 16 0 8 28 343 150 64 13 356 355 358 356 355 354 359 0 1 359 358 354 352 352 348 339 241 208 208 204 192 192 189 181 165 157 151 148 149 147 141 139
114 92 178 121 146 141 330 331 59 358 350 28 306 307 280 24 356 347 350 356 355 1 358 358 358 357 353 354 348 350 346 342 338 315 269 207 209 204 207 194 183 170 161 153 148 148 146 141 138
103 95 114 39 173 173 332 358 18 46 22 313 331 44 327 343 345 343 346 355 359 3 1 359 354 354 352 346 344 347 340 336 337 332 336 234 202 199 206 197 184 171 167 156 151 149 146 137 136
355 76 152 161 160 158 194 34 324 3 32 32 39 76 344 335 341 352 352 355 356 359 1 359 352 350 347 342 343 337 333 330 335 336 332 336 220 196 191 188 176 174 175 158 153 151 148 127 122
62 98 137 126 126 125 171 152 257 14 342 321 339 11 353 349 354 1 1 351 351 349 349 354 351 346 343 340 336 330 327 318 327 320 315 298 257 201 181 169 185 171 173 164 154 149 128 121 129
21 117 143 91 126 131 170 174 134 220 184 182 271 319 339 348 358 359 354 350 339 335 339 347 345 342 339 335 333 326 322 318 319 319 330 293 264 196 196 166 179 166 170 163 140 129 130 138 132
87 53 107 131 43 120 168 296 304 199 143 144 247 97 322 347 0 351 344 340 337 334 333 336 342 337 335 331 327 322 319 313 305 307 307 278 262 174 191 179 170 165 161 148 132 132 128 136 131
73 126 61 82 112 63 205 275 218 240 106 8 46 20 349 340 344 345 340 333 333 334 332 329 335 334 330 327 322 316 310 305 303 301 283 297 282 202 179 188 176 170 164 157 148 141 142 138 133
78 91 133 94 59 56 39 249 243 159 11 302 353 345 338 335 337 339 346 338 333 330 328 326 326 325 325 322 314 309 304 300 297 294 295 305 292 185 181 190 179 175 171 157 159 152 151 144 144
93 82 35 31 348 26 312 61 212 144 356 318 326 325 332 330 332 329 316 322 318 319 322 323 322 324 320 315 310 305 300 298 290 288 289 283 279 230 180 193 179 177 172 152 155 154 151 142 144
63 76 16 341 1 356 39 261 229 144 343 293 304 310 307 310 312 313 314 316 318 316 321 318 320 317 315 309 306 301 297 292 284 284 290 278 280 285 185 195 182 170 158 168 161 159 157 151 143
20 205 358 330 75 330 57 260 262 102 284 278 272 280 299 309 315 296 300 305 310 311 313 315 316 314 313 305 303 297 292 288 284 281 276 277 277 291 195 183 194 153 167 170 169 165 161 153 147
250 293 255 249 6 304 265 266 270 262 236 250 262 272 288 298 290 306 315 316 313 311 309 310 313 311 310 307 302 294 288 288 298 293 291 278 284 296 194 178 175 162 177 181 166 166 161 154 148
106 88 246 272 295 319 258 277 277 274 250 245 248 259 275 281 287 300 304 315 320 319 316 312 315 313 312 312 308 304 300 300 296 288 290 285 273 267 230 179 170 165 175 188 168 166 153 148 148
87 102 261 271 236 271 309 290 274 269 248 222 233 262 259 288 305 317 321 313 312 311 309 308 312 310 307 303 299 292 295 288 288 288 278 275 276 269 290 184 184 176 178 178 168 172 155 151 162
181 190 220 243 314 257 312 284 329 319 294 281 241 240 261 257 289 304 300 292 297 301 304 304 308 307 304 303 298 293 285 280 288 287 286 298 295 290 259 206 186 183 167 183 182 178 167 165 179
282 161 42 290 359 269 62 280 305 314 297 269 273 252 253 276 297 297 298 294 293 287 291 291 299 306 305 304 295 294 289 290 288 288 292 292 281 272 241 230 176 182 175 183 189 185 175 165 175
272 5 275 119 107 28 342 69 268 18 301 279 272 260 252 255 273 292 293 282 286 288 291 294 296 306 301 294 292 291 286 285 289 286 290 282 279 270 265 252 185 179 175 184 186 187 185 171 171
33 113 41 63 88 17 268 107 274 203 207 268 277 275 259 283 286 293 294 298 291 293 292 301 304 308 303 296 293 289 288 290 285 287 291 286 286 291 265 241 191 180 175 179 186 189 188 172 173
57 69 323 343 1 226 335 47 248 259 231 223 259 275 275 283 293 299 303 305 304 301 307 307 308 313 311 305 299 294 293 287 281 285 288 287 290 288 292 4 199 180 176 182 182 187 190 181 178
150 151 156 251 270 286 26 235 254 218 267 252 252 249 282 282 281 288 286 290 290 295 305 308 311 318 316 311 305 299 297 286 279 274 278 282 282 289 301 324 311 181 196 179 179 185 190 187 186
233 18 205 101 77 10 257 286 289 268 281 279 282 256 262 277 288 290 301 295 296 300 308 308 312 318 318 313 309 304 302 292 284 288 283 277 274 285 288 292 308 231 201 184 177 186 193 190 184
135 154 44 6 336 291 287 280 247 292 260 280 299 289 275 283 293 295 296 298 292 295 300 306 312 316 316 316 311 309 302 296 297 294 286 280 284 279 286 287 270 274 192 182 178 187 188 192 186
39 10 40 113 96 190 292 265 209 214 211 237 276 279 263 275 279 285 291 290 289 294 305 314 316 322 324 321 319 317 307 309 310 302 292 283 279 273 264 258 260 292 194 187 178 184 179 195 183
156 192 149 129 255 62 149 271 205 229 241 236 275 282 276 246 272 280 283 293 306 312 317 323 322 324 324 320 323 319 315 320 322 317 303 294 287 279 277 255 257 277 210 192 183 187 182 191 192